owner,sensor,date,latitude,longitude,vertical_datum,sea_water_practical_salinity,qcFlag 
NERRS,ioos:station:NOAA.NERRS:rkblhwq:1,2017-08-08T16:45:00Z,26.0257,-81.7332,1.61,20.3,1111122 
NERRS,ioos:station:NOAA.NERRS:rkblhwq:1,2017-08-08T17:45:00Z,26.0257,-81.7332,1.68,21.5,1111122 
NERRS,ioos:station:NOAA.NERRS:rkblhwq:1,2017-08-08T18:45:00Z,26.0257,-81.7332,1.72,22.4,1111122 
NERRS,ioos:station:NOAA.NERRS:rkblhwq:1,2017-08-08T19:45:00Z,26.0257,-81.7332,1.69,23.6,1111122 
NERRS,ioos:station:NOAA.NERRS:rkblhwq:1,2017-08-08T20:45:00Z,26.0257,-81.7332,1.58,20.9,1111122 
NERRS,ioos:station:NOAA.NERRS:rkblhwq:1,2017-08-08T21:45:00Z,26.0257,-81.7332,1.44,19.8,1111122 
NERRS,ioos:station:NOAA.NERRS:rkblhwq:1,2017-08-08T22:45:00Z,26.0257,-81.7332,1.26,18.0,1111122 
NERRS,ioos:station:NOAA.NERRS:rkblhwq:1,2017-08-08T23:45:00Z,26.0257,-81.7332,1.08,17.7,1111122 
NERRS,ioos:station:NOAA.NERRS:rkblhwq:1,2017-08-09T00:45:00Z,26.0257,-81.7332,0.93,15.8,1111122 
NERRS,ioos:station:NOAA.NERRS:rkblhwq:1,2017-08-09T01:45:00Z,26.0257,-81.7332,0.84,15.5,1111122 
NERRS,ioos:station:NOAA.NERRS:rkblhwq:1,2017-08-09T02:45:00Z,26.0257,-81.7332,0.93,13.4,1111122 
NERRS,ioos:station:NOAA.NERRS:rkblhwq:1,2017-08-09T03:45:00Z,26.0257,-81.7332,1.1,14.5,1111122 
NERRS,ioos:station:NOAA.NERRS:rkblhwq:1,2017-08-09T04:45:00Z,26.0257,-81.7332,1.26,16.8,1111122 
NERRS,ioos:station:NOAA.NERRS:rkblhwq:1,2017-08-09T05:45:00Z,26.0257,-81.7332,1.4,18.6,1111122 
NERRS,ioos:station:NOAA.NERRS:rkblhwq:1,2017-08-09T06:45:00Z,26.0257,-81.7332,1.52,19.7,1111122 
NERRS,ioos:station:NOAA.NERRS:rkblhwq:1,2017-08-09T07:45:00Z,26.0257,-81.7332,1.57,20.2,1111122 
NERRS,ioos:station:NOAA.NERRS:rkblhwq:1,2017-08-09T08:45:00Z,26.0257,-81.7332,1.51,19.1,1111122 
NERRS,ioos:station:NOAA.NERRS:rkblhwq:1,2017-08-09T09:45:00Z,26.0257,-81.7332,1.39,18.4,1111122 
NERRS,ioos:station:NOAA.NERRS:rkblhwq:1,2017-08-09T10:45:00Z,26.0257,-81.7332,1.27,19.7,1111122 
NERRS,ioos:station:NOAA.NERRS:rkblhwq:1,2017-08-09T11:45:00Z,26.0257,-81.7332,1.17,17.3,1111122 
NERRS,ioos:station:NOAA.NERRS:rkblhwq:1,2017-08-09T12:45:00Z,26.0257,-81.7332,1.09,15.9,1111122 
NERRS,ioos:station:NOAA.NERRS:rkblhwq:1,2017-08-09T13:45:00Z,26.0257,-81.7332,1.09,16.3,1111122 
NERRS,ioos:station:NOAA.NERRS:rkblhwq:1,2017-08-09T14:45:00Z,26.0257,-81.7332,1.19,17.1,1111122 
NERRS,ioos:station:NOAA.NERRS:rkblhwq:1,2017-08-09T15:45:00Z,26.0257,-81.7332,1.35,16.8,1111122 
NERRS,ioos:station:NOAA.NERRS:rkblhwq:1,2017-08-09T22:45:00Z,26.0257,-81.7332,1.33,19.3,1111122 
NERRS,ioos:station:NOAA.NERRS:rkblhwq:1,2017-08-09T23:45:00Z,26.0257,-81.7332,1.15,19.0,1111122 
NERRS,ioos:station:NOAA.NERRS:rkblhwq:1,2017-08-10T00:45:00Z,26.0257,-81.7332,0.99,16.4,1111122 
NERRS,ioos:station:NOAA.NERRS:rkblhwq:1,2017-08-10T01:45:00Z,26.0257,-81.7332,0.87,14.6,1111122 
NERRS,ioos:station:NOAA.NERRS:rkblhwq:1,2017-08-10T02:45:00Z,26.0257,-81.7332,0.86,9.6,1111122 
NERRS,ioos:station:NOAA.NERRS:rkblhwq:1,2017-08-10T03:45:00Z,26.0257,-81.7332,0.99,15.0,1111122 
NERRS,ioos:station:NOAA.NERRS:rkblhwq:1,2017-08-10T04:45:00Z,26.0257,-81.7332,1.13,16.1,1111122 
NERRS,ioos:station:NOAA.NERRS:rkblhwq:1,2017-08-10T05:45:00Z,26.0257,-81.7332,1.3,17.8,1111122 
NERRS,ioos:station:NOAA.NERRS:rkblhwq:1,2017-08-10T06:45:00Z,26.0257,-81.7332,1.44,19.6,1111122 
NERRS,ioos:station:NOAA.NERRS:rkblhwq:1,2017-08-10T07:45:00Z,26.0257,-81.7332,1.55,20.6,1111122 
NERRS,ioos:station:NOAA.NERRS:rkblhwq:1,2017-08-10T08:45:00Z,26.0257,-81.7332,1.55,20.8,1111122 
NERRS,ioos:station:NOAA.NERRS:rkblhwq:1,2017-08-10T09:45:00Z,26.0257,-81.7332,1.45,19.4,1111122 
NERRS,ioos:station:NOAA.NERRS:rkblhwq:1,2017-08-10T10:45:00Z,26.0257,-81.7332,1.32,19.4,1111122 
NERRS,ioos:station:NOAA.NERRS:rkblhwq:1,2017-08-10T11:45:00Z,26.0257,-81.7332,1.19,19.7,1111122 
NERRS,ioos:station:NOAA.NERRS:rkblhwq:1,2017-08-10T12:45:00Z,26.0257,-81.7332,1.07,18.8,1111122 
NERRS,ioos:station:NOAA.NERRS:rkblhwq:1,2017-08-10T13:45:00Z,26.0257,-81.7332,1.0,17.4,1111122 
NERRS,ioos:station:NOAA.NERRS:rkblhwq:1,2017-08-10T14:45:00Z,26.0257,-81.7332,1.06,17.7,1111122 
NERRS,ioos:station:NOAA.NERRS:rkblhwq:1,2017-08-10T15:45:00Z,26.0257,-81.7332,1.2,16.2,1111122 
NERRS,ioos:station:NOAA.NERRS:rkblhwq:1,2017-08-10T16:45:00Z,26.0257,-81.7332,1.35,18.3,1111122 
NERRS,ioos:station:NOAA.NERRS:rkblhwq:1,2017-08-10T17:45:00Z,26.0257,-81.7332,1.49,19.2,1111122 
NERRS,ioos:station:NOAA.NERRS:rkblhwq:1,2017-08-10T18:45:00Z,26.0257,-81.7332,1.6,21.5,1111122 
NERRS,ioos:station:NOAA.NERRS:rkblhwq:1,2017-08-10T19:45:00Z,26.0257,-81.7332,1.66,20.9,1111122 
NERRS,ioos:station:NOAA.NERRS:rkblhwq:1,2017-08-10T20:45:00Z,26.0257,-81.7332,1.64,21.3,1111122 
NERRS,ioos:station:NOAA.NERRS:rkblhwq:1,2017-08-10T21:45:00Z,26.0257,-81.7332,1.52,18.7,1111122 
NERRS,ioos:station:NOAA.NERRS:rkblhwq:1,2017-08-10T22:45:00Z,26.0257,-81.7332,1.36,19.9,1111122 
NERRS,ioos:station:NOAA.NERRS:rkblhwq:1,2017-08-10T23:45:00Z,26.0257,-81.7332,1.2,19.9,1111122 
NERRS,ioos:station:NOAA.NERRS:rkblhwq:1,2017-08-11T00:45:00Z,26.0257,-81.7332,1.04,17.9,1111122 
NERRS,ioos:station:NOAA.NERRS:rkblhwq:1,2017-08-11T01:45:00Z,26.0257,-81.7332,0.92,13.2,1111122 
NERRS,ioos:station:NOAA.NERRS:rkblhwq:1,2017-08-11T02:45:00Z,26.0257,-81.7332,0.82,10.6,1111122 
NERRS,ioos:station:NOAA.NERRS:rkblhwq:1,2017-08-11T03:45:00Z,26.0257,-81.7332,0.86,11.3,1111122 
NERRS,ioos:station:NOAA.NERRS:rkblhwq:1,2017-08-11T04:45:00Z,26.0257,-81.7332,1.0,14.7,1111122 
NERRS,ioos:station:NOAA.NERRS:rkblhwq:1,2017-08-11T05:45:00Z,26.0257,-81.7332,1.16,16.7,1111122 
NERRS,ioos:station:NOAA.NERRS:rkblhwq:1,2017-08-11T06:45:00Z,26.0257,-81.7332,1.34,18.5,1111122 
NERRS,ioos:station:NOAA.NERRS:rkblhwq:1,2017-08-11T07:45:00Z,26.0257,-81.7332,1.49,20.0,1111122 
NERRS,ioos:station:NOAA.NERRS:rkblhwq:1,2017-08-11T08:45:00Z,26.0257,-81.7332,1.58,19.6,1111122 
NERRS,ioos:station:NOAA.NERRS:rkblhwq:1,2017-08-11T09:45:00Z,26.0257,-81.7332,1.52,18.5,1111122 
NERRS,ioos:station:NOAA.NERRS:rkblhwq:1,2017-08-11T10:45:00Z,26.0257,-81.7332,1.4,19.5,1111122 
NERRS,ioos:station:NOAA.NERRS:rkblhwq:1,2017-08-11T11:45:00Z,26.0257,-81.7332,1.26,19.9,1111122 
NERRS,ioos:station:NOAA.NERRS:rkblhwq:1,2017-08-11T12:45:00Z,26.0257,-81.7332,1.12,19.6,1111122 
NERRS,ioos:station:NOAA.NERRS:rkblhwq:1,2017-08-11T13:45:00Z,26.0257,-81.7332,0.99,19.0,1111122 
NERRS,ioos:station:NOAA.NERRS:rkblhwq:1,2017-08-11T14:45:00Z,26.0257,-81.7332,0.94,17.8,1111122 
NERRS,ioos:station:NOAA.NERRS:rkblhwq:1,2017-08-11T15:45:00Z,26.0257,-81.7332,1.03,15.8,1111122 
NERRS,ioos:station:NOAA.NERRS:rkblhwq:1,2017-08-11T16:45:00Z,26.0257,-81.7332,1.17,16.5,1111122 
NERRS,ioos:station:NOAA.NERRS:rkblhwq:1,2017-08-11T17:45:00Z,26.0257,-81.7332,1.3,17.5,1111122 
NERRS,ioos:station:NOAA.NERRS:rkblhwq:1,2017-08-11T18:45:00Z,26.0257,-81.7332,1.44,19.2,1111122 
NERRS,ioos:station:NOAA.NERRS:rkblhwq:1,2017-08-11T19:45:00Z,26.0257,-81.7332,1.55,19.9,1111122 
NERRS,ioos:station:NOAA.NERRS:rkblhwq:1,2017-08-11T20:45:00Z,26.0257,-81.7332,1.62,19.9,1111122 
NERRS,ioos:station:NOAA.NERRS:rkblhwq:1,2017-08-11T21:45:00Z,26.0257,-81.7332,1.57,20.2,1111122 
NERRS,ioos:station:NOAA.NERRS:rkblhwq:1,2017-08-11T22:45:00Z,26.0257,-81.7332,1.45,19.1,1111122 
NERRS,ioos:station:NOAA.NERRS:rkblhwq:1,2017-08-11T23:45:00Z,26.0257,-81.7332,1.29,18.4,1111122 
NERRS,ioos:station:NOAA.NERRS:rkblhwq:1,2017-08-12T00:45:00Z,26.0257,-81.7332,1.13,19.6,1111122 
NERRS,ioos:station:NOAA.NERRS:rkblhwq:1,2017-08-12T01:45:00Z,26.0257,-81.7332,0.99,18.7,1111122 
NERRS,ioos:station:NOAA.NERRS:rkblhwq:1,2017-08-12T02:45:00Z,26.0257,-81.7332,0.86,17.4,1111122 
NERRS,ioos:station:NOAA.NERRS:rkblhwq:1,2017-08-12T03:45:00Z,26.0257,-81.7332,0.81,15.9,1111122 
NERRS,ioos:station:NOAA.NERRS:rkblhwq:1,2017-08-12T04:45:00Z,26.0257,-81.7332,0.92,17.6,1111122 
NERRS,ioos:station:NOAA.NERRS:rkblhwq:1,2017-08-12T05:45:00Z,26.0257,-81.7332,1.07,16.5,1111122 
NERRS,ioos:station:NOAA.NERRS:rkblhwq:1,2017-08-12T06:45:00Z,26.0257,-81.7332,1.23,18.0,1111122 
NERRS,ioos:station:NOAA.NERRS:rkblhwq:1,2017-08-12T07:45:00Z,26.0257,-81.7332,1.39,19.6,1111122 
NERRS,ioos:station:NOAA.NERRS:rkblhwq:1,2017-08-12T08:45:00Z,26.0257,-81.7332,1.51,21.1,1111122 
NERRS,ioos:station:NOAA.NERRS:rkblhwq:1,2017-08-12T09:45:00Z,26.0257,-81.7332,1.56,20.4,1111122 
NERRS,ioos:station:NOAA.NERRS:rkblhwq:1,2017-08-12T10:45:00Z,26.0257,-81.7332,1.47,20.2,1111122 
NERRS,ioos:station:NOAA.NERRS:rkblhwq:1,2017-08-12T11:45:00Z,26.0257,-81.7332,1.33,20.8,1111122 
NERRS,ioos:station:NOAA.NERRS:rkblhwq:1,2017-08-12T12:45:00Z,26.0257,-81.7332,1.19,20.4,1111122 
NERRS,ioos:station:NOAA.NERRS:rkblhwq:1,2017-08-12T13:45:00Z,26.0257,-81.7332,1.06,20.2,1111122 
NERRS,ioos:station:NOAA.NERRS:rkblhwq:1,2017-08-12T14:45:00Z,26.0257,-81.7332,0.94,19.9,1111122 
NERRS,ioos:station:NOAA.NERRS:rkblhwq:1,2017-08-12T15:45:00Z,26.0257,-81.7332,0.92,17.8,1111122 
NERRS,ioos:station:NOAA.NERRS:rkblhwq:1,2017-08-12T16:45:00Z,26.0257,-81.7332,1.02,17.9,1111122 
NERRS,ioos:station:NOAA.NERRS:rkblhwq:1,2017-08-12T17:45:00Z,26.0257,-81.7332,1.15,16.7,1111122 
NERRS,ioos:station:NOAA.NERRS:rkblhwq:1,2017-08-12T18:45:00Z,26.0257,-81.7332,1.29,18.5,1111122 
NERRS,ioos:station:NOAA.NERRS:rkblhwq:1,2017-08-12T19:45:00Z,26.0257,-81.7332,1.41,19.9,1111122 
NERRS,ioos:station:NOAA.NERRS:rkblhwq:1,2017-08-12T20:45:00Z,26.0257,-81.7332,1.51,21.2,1111122 
NERRS,ioos:station:NOAA.NERRS:rkblhwq:1,2017-08-12T21:45:00Z,26.0257,-81.7332,1.56,21.2,1111122 
NERRS,ioos:station:NOAA.NERRS:rkblhwq:1,2017-08-12T22:45:00Z,26.0257,-81.7332,1.51,20.5,1111122 
NERRS,ioos:station:NOAA.NERRS:rkblhwq:1,2017-08-12T23:45:00Z,26.0257,-81.7332,1.39,19.9,1111122 
NERRS,ioos:station:NOAA.NERRS:rkblhwq:1,2017-08-13T00:45:00Z,26.0257,-81.7332,1.25,19.2,1111122 
NERRS,ioos:station:NOAA.NERRS:rkblhwq:1,2017-08-13T01:45:00Z,26.0257,-81.7332,1.11,18.5,1111122 
NERRS,ioos:station:NOAA.NERRS:rkblhwq:1,2017-08-13T02:45:00Z,26.0257,-81.7332,0.99,19.9,1111122 
NERRS,ioos:station:NOAA.NERRS:rkblhwq:1,2017-08-13T03:45:00Z,26.0257,-81.7332,0.91,17.2,1111122 
NERRS,ioos:station:NOAA.NERRS:rkblhwq:1,2017-08-13T04:45:00Z,26.0257,-81.7332,0.95,17.7,1111122 
NERRS,ioos:station:NOAA.NERRS:rkblhwq:1,2017-08-13T05:45:00Z,26.0257,-81.7332,1.07,16.9,1111122 
NERRS,ioos:station:NOAA.NERRS:rkblhwq:1,2017-08-13T06:45:00Z,26.0257,-81.7332,1.21,19.1,1111122 
NERRS,ioos:station:NOAA.NERRS:rkblhwq:1,2017-08-13T07:45:00Z,26.0257,-81.7332,1.34,20.3,1111122 
NERRS,ioos:station:NOAA.NERRS:rkblhwq:1,2017-08-13T08:45:00Z,26.0257,-81.7332,1.46,21.7,1111122 
NERRS,ioos:station:NOAA.NERRS:rkblhwq:1,2017-08-13T09:45:00Z,26.0257,-81.7332,1.55,22.5,1111122 
NERRS,ioos:station:NOAA.NERRS:rkblhwq:1,2017-08-13T10:45:00Z,26.0257,-81.7332,1.55,22.8,1111122 
NERRS,ioos:station:NOAA.NERRS:rkblhwq:1,2017-08-13T11:45:00Z,26.0257,-81.7332,1.45,21.7,1111122 
NERRS,ioos:station:NOAA.NERRS:rkblhwq:1,2017-08-13T12:45:00Z,26.0257,-81.7332,1.33,21.5,1111122 
NERRS,ioos:station:NOAA.NERRS:rkblhwq:1,2017-08-13T13:45:00Z,26.0257,-81.7332,1.18,21.7,1111122 
NERRS,ioos:station:NOAA.NERRS:rkblhwq:1,2017-08-13T14:45:00Z,26.0257,-81.7332,1.04,20.5,1111122 
NERRS,ioos:station:NOAA.NERRS:rkblhwq:1,2017-08-13T15:45:00Z,26.0257,-81.7332,0.93,19.4,1111122 
NERRS,ioos:station:NOAA.NERRS:rkblhwq:1,2017-08-13T16:45:00Z,26.0257,-81.7332,0.87,19.0,1111122 
NERRS,ioos:station:NOAA.NERRS:rkblhwq:1,2017-08-13T17:45:00Z,26.0257,-81.7332,0.94,16.8,1111122 
NERRS,ioos:station:NOAA.NERRS:rkblhwq:1,2017-08-13T18:45:00Z,26.0257,-81.7332,1.08,17.8,1111122 
NERRS,ioos:station:NOAA.NERRS:rkblhwq:1,2017-08-13T19:45:00Z,26.0257,-81.7332,1.21,19.1,1111122 
NERRS,ioos:station:NOAA.NERRS:rkblhwq:1,2017-08-13T20:45:00Z,26.0257,-81.7332,1.34,20.1,1111122 
NERRS,ioos:station:NOAA.NERRS:rkblhwq:1,2017-08-13T21:45:00Z,26.0257,-81.7332,1.42,21.4,1111122 
NERRS,ioos:station:NOAA.NERRS:rkblhwq:1,2017-08-13T22:45:00Z,26.0257,-81.7332,1.47,20.9,1111122 
NERRS,ioos:station:NOAA.NERRS:rkblhwq:1,2017-08-13T23:45:00Z,26.0257,-81.7332,1.42,20.8,1111122 
NERRS,ioos:station:NOAA.NERRS:rkblhwq:1,2017-08-14T00:45:00Z,26.0257,-81.7332,1.33,19.6,1111122 
NERRS,ioos:station:NOAA.NERRS:rkblhwq:1,2017-08-14T01:45:00Z,26.0257,-81.7332,1.21,20.0,1111122 
NERRS,ioos:station:NOAA.NERRS:rkblhwq:1,2017-08-14T02:45:00Z,26.0257,-81.7332,1.09,19.2,1111122 
NERRS,ioos:station:NOAA.NERRS:rkblhwq:1,2017-08-14T03:45:00Z,26.0257,-81.7332,1.0,18.0,1111122 
NERRS,ioos:station:NOAA.NERRS:rkblhwq:1,2017-08-14T04:45:00Z,26.0257,-81.7332,0.94,18.6,1111122 
NERRS,ioos:station:NOAA.NERRS:rkblhwq:1,2017-08-14T05:45:00Z,26.0257,-81.7332,0.99,19.3,1111122 
NERRS,ioos:station:NOAA.NERRS:rkblhwq:1,2017-08-14T06:45:00Z,26.0257,-81.7332,1.11,18.3,1111122 
NERRS,ioos:station:NOAA.NERRS:rkblhwq:1,2017-08-14T07:45:00Z,26.0257,-81.7332,1.25,20.0,1111122 
NERRS,ioos:station:NOAA.NERRS:rkblhwq:1,2017-08-14T08:45:00Z,26.0257,-81.7332,1.37,21.5,1111122 
NERRS,ioos:station:NOAA.NERRS:rkblhwq:1,2017-08-14T09:45:00Z,26.0257,-81.7332,1.49,22.7,1111122 
NERRS,ioos:station:NOAA.NERRS:rkblhwq:1,2017-08-14T10:45:00Z,26.0257,-81.7332,1.56,23.3,1111122 
NERRS,ioos:station:NOAA.NERRS:rkblhwq:1,2017-08-14T11:45:00Z,26.0257,-81.7332,1.54,22.6,1111122 
NERRS,ioos:station:NOAA.NERRS:rkblhwq:1,2017-08-14T12:45:00Z,26.0257,-81.7332,1.43,22.5,1111122 
NERRS,ioos:station:NOAA.NERRS:rkblhwq:1,2017-08-14T13:45:00Z,26.0257,-81.7332,1.3,20.4,1111122 
NERRS,ioos:station:NOAA.NERRS:rkblhwq:1,2017-08-14T14:45:00Z,26.0257,-81.7332,1.16,20.7,1111122 
NERRS,ioos:station:NOAA.NERRS:rkblhwq:1,2017-08-14T15:45:00Z,26.0257,-81.7332,1.02,22.0,1111122 
NERRS,ioos:station:NOAA.NERRS:rkblhwq:1,2017-08-14T16:45:00Z,26.0257,-81.7332,0.89,20.6,1111122 
NERRS,ioos:station:NOAA.NERRS:rkblhwq:1,2017-08-14T17:45:00Z,26.0257,-81.7332,0.82,18.6,1111122 
NERRS,ioos:station:NOAA.NERRS:rkblhwq:1,2017-08-14T18:45:00Z,26.0257,-81.7332,0.87,17.0,1111122 
NERRS,ioos:station:NOAA.NERRS:rkblhwq:1,2017-08-14T19:45:00Z,26.0257,-81.7332,0.98,17.9,1111122 
NERRS,ioos:station:NOAA.NERRS:rkblhwq:1,2017-08-14T20:45:00Z,26.0257,-81.7332,1.1,19.6,1111122 
NERRS,ioos:station:NOAA.NERRS:rkblhwq:1,2017-08-14T21:45:00Z,26.0257,-81.7332,1.23,20.1,1111122 
NERRS,ioos:station:NOAA.NERRS:rkblhwq:1,2017-08-14T22:45:00Z,26.0257,-81.7332,1.34,21.0,1111122 
NERRS,ioos:station:NOAA.NERRS:rkblhwq:1,2017-08-14T23:45:00Z,26.0257,-81.7332,1.41,21.7,1111122 
NERRS,ioos:station:NOAA.NERRS:rkblhwq:1,2017-08-15T00:45:00Z,26.0257,-81.7332,1.38,20.7,1111122 
NERRS,ioos:station:NOAA.NERRS:rkblhwq:1,2017-08-15T01:45:00Z,26.0257,-81.7332,1.28,20.9,1111122 
NERRS,ioos:station:NOAA.NERRS:rkblhwq:1,2017-08-15T02:45:00Z,26.0257,-81.7332,1.19,20.2,1111122 
NERRS,ioos:station:NOAA.NERRS:rkblhwq:1,2017-08-15T03:45:00Z,26.0257,-81.7332,1.11,20.5,1111122 
NERRS,ioos:station:NOAA.NERRS:rkblhwq:1,2017-08-15T04:45:00Z,26.0257,-81.7332,1.04,20.6,1111122 
NERRS,ioos:station:NOAA.NERRS:rkblhwq:1,2017-08-15T05:45:00Z,26.0257,-81.7332,1.02,19.3,1111122 
NERRS,ioos:station:NOAA.NERRS:rkblhwq:1,2017-08-15T06:45:00Z,26.0257,-81.7332,1.07,20.8,1111122 
NERRS,ioos:station:NOAA.NERRS:rkblhwq:1,2017-08-15T07:45:00Z,26.0257,-81.7332,1.2,20.1,1111122 
NERRS,ioos:station:NOAA.NERRS:rkblhwq:1,2017-08-15T08:45:00Z,26.0257,-81.7332,1.33,21.7,1111122 
NERRS,ioos:station:NOAA.NERRS:rkblhwq:1,2017-08-15T09:45:00Z,26.0257,-81.7332,1.43,22.6,1111122 
NERRS,ioos:station:NOAA.NERRS:rkblhwq:1,2017-08-15T10:45:00Z,26.0257,-81.7332,1.52,23.8,1111122 
NERRS,ioos:station:NOAA.NERRS:rkblhwq:1,2017-08-15T11:45:00Z,26.0257,-81.7332,1.59,23.9,1111122 
NERRS,ioos:station:NOAA.NERRS:rkblhwq:1,2017-08-15T12:45:00Z,26.0257,-81.7332,1.57,23.4,1111122 
NERRS,ioos:station:NOAA.NERRS:rkblhwq:1,2017-08-15T13:45:00Z,26.0257,-81.7332,1.47,23.5,1111122 
NERRS,ioos:station:NOAA.NERRS:rkblhwq:1,2017-08-15T14:45:00Z,26.0257,-81.7332,1.34,22.3,1111122 
NERRS,ioos:station:NOAA.NERRS:rkblhwq:1,2017-08-15T15:45:00Z,26.0257,-81.7332,1.19,22.7,1111122 
NERRS,ioos:station:NOAA.NERRS:rkblhwq:1,2017-08-15T16:45:00Z,26.0257,-81.7332,1.05,22.1,1111122 
NERRS,ioos:station:NOAA.NERRS:rkblhwq:1,2017-08-15T18:45:00Z,26.0257,-81.7332,0.82,19.8,1111122 
NERRS,ioos:station:NOAA.NERRS:rkblhwq:1,2017-08-15T19:45:00Z,26.0257,-81.7332,0.83,19.5,1111122 
NERRS,ioos:station:NOAA.NERRS:rkblhwq:1,2017-08-15T21:45:00Z,26.0257,-81.7332,1.06,19.9,1111122 
NERRS,ioos:station:NOAA.NERRS:rkblhwq:1,2017-08-15T22:45:00Z,26.0257,-81.7332,1.19,20.8,1111122 
NERRS,ioos:station:NOAA.NERRS:rkblhwq:1,2017-08-15T23:45:00Z,26.0257,-81.7332,1.31,21.4,1111122 
NERRS,ioos:station:NOAA.NERRS:rkblhwq:1,2017-08-16T00:45:00Z,26.0257,-81.7332,1.41,22.3,1111122 
NERRS,ioos:station:NOAA.NERRS:rkblhwq:1,2017-08-16T01:45:00Z,26.0257,-81.7332,1.45,22.3,1111122 
NERRS,ioos:station:NOAA.NERRS:rkblhwq:1,2017-08-16T02:45:00Z,26.0257,-81.7332,1.38,21.8,1111122 
NERRS,ioos:station:NOAA.NERRS:rkblhwq:1,2017-08-16T03:45:00Z,26.0257,-81.7332,1.28,21.3,1111122 
NERRS,ioos:station:NOAA.NERRS:rkblhwq:1,2017-08-16T04:45:00Z,26.0257,-81.7332,1.19,21.5,1111122 
NERRS,ioos:station:NOAA.NERRS:rkblhwq:1,2017-08-16T05:45:00Z,26.0257,-81.7332,1.13,21.3,1111122 
NERRS,ioos:station:NOAA.NERRS:rkblhwq:1,2017-08-16T06:45:00Z,26.0257,-81.7332,1.07,20.5,1111122 
NERRS,ioos:station:NOAA.NERRS:rkblhwq:1,2017-08-16T07:45:00Z,26.0257,-81.7332,1.1,21.5,1111122 
NERRS,ioos:station:NOAA.NERRS:rkblhwq:1,2017-08-16T08:45:00Z,26.0257,-81.7332,1.21,21.2,1111122 
NERRS,ioos:station:NOAA.NERRS:rkblhwq:1,2017-08-16T09:45:00Z,26.0257,-81.7332,1.33,21.4,1111122 
NERRS,ioos:station:NOAA.NERRS:rkblhwq:1,2017-08-16T10:45:00Z,26.0257,-81.7332,1.44,22.9,1111122 
NERRS,ioos:station:NOAA.NERRS:rkblhwq:1,2017-08-16T11:45:00Z,26.0257,-81.7332,1.52,23.3,1111122 
NERRS,ioos:station:NOAA.NERRS:rkblhwq:1,2017-08-16T12:45:00Z,26.0257,-81.7332,1.58,23.9,1111122 
NERRS,ioos:station:NOAA.NERRS:rkblhwq:1,2017-08-16T13:45:00Z,26.0257,-81.7332,1.56,23.2,1111122 
NERRS,ioos:station:NOAA.NERRS:rkblhwq:1,2017-08-16T14:45:00Z,26.0257,-81.7332,1.45,23.2,1111122 
NERRS,ioos:station:NOAA.NERRS:rkblhwq:1,2017-08-16T15:45:00Z,26.0257,-81.7332,1.3,23.7,1111122 
NERRS,ioos:station:NOAA.NERRS:rkblhwq:1,2017-08-16T16:45:00Z,26.0257,-81.7332,1.15,23.2,1111122 
NERRS,ioos:station:NOAA.NERRS:rkblhwq:1,2017-08-16T18:45:00Z,26.0257,-81.7332,0.86,20.9,1111122 
NERRS,ioos:station:NOAA.NERRS:rkblhwq:1,2017-08-16T19:45:00Z,26.0257,-81.7332,0.75,20.9,1111122 
NERRS,ioos:station:NOAA.NERRS:rkblhwq:1,2017-08-16T20:45:00Z,26.0257,-81.7332,0.71,18.8,1111122 
NERRS,ioos:station:NOAA.NERRS:rkblhwq:1,2017-08-16T21:45:00Z,26.0257,-81.7332,0.8,18.8,1111122 
NERRS,ioos:station:NOAA.NERRS:rkblhwq:1,2017-08-17T03:45:00Z,26.0257,-81.7332,1.41,22.6,1111122 
NERRS,ioos:station:NOAA.NERRS:rkblhwq:1,2017-08-17T04:45:00Z,26.0257,-81.7332,1.33,21.9,1111122 
NERRS,ioos:station:NOAA.NERRS:rkblhwq:1,2017-08-17T05:45:00Z,26.0257,-81.7332,1.24,21.7,1111122 
NERRS,ioos:station:NOAA.NERRS:rkblhwq:1,2017-08-17T06:45:00Z,26.0257,-81.7332,1.16,20.9,1111122 
NERRS,ioos:station:NOAA.NERRS:rkblhwq:1,2017-08-17T07:45:00Z,26.0257,-81.7332,1.1,21.3,1111122 
NERRS,ioos:station:NOAA.NERRS:rkblhwq:1,2017-08-17T08:45:00Z,26.0257,-81.7332,1.12,20.9,1111122 
NERRS,ioos:station:NOAA.NERRS:rkblhwq:1,2017-08-17T09:45:00Z,26.0257,-81.7332,1.22,22.5,1111122 
NERRS,ioos:station:NOAA.NERRS:rkblhwq:1,2017-08-17T10:45:00Z,26.0257,-81.7332,1.35,20.9,1111122 
NERRS,ioos:station:NOAA.NERRS:rkblhwq:1,2017-08-17T11:45:00Z,26.0257,-81.7332,1.46,23.6,1111122 
NERRS,ioos:station:NOAA.NERRS:rkblhwq:1,2017-08-17T12:45:00Z,26.0257,-81.7332,1.56,24.5,1111122 
NERRS,ioos:station:NOAA.NERRS:rkblhwq:1,2017-08-17T13:45:00Z,26.0257,-81.7332,1.62,24.4,1111122 
NERRS,ioos:station:NOAA.NERRS:rkblhwq:1,2017-08-17T14:45:00Z,26.0257,-81.7332,1.61,24.4,1111122 
NERRS,ioos:station:NOAA.NERRS:rkblhwq:1,2017-08-17T15:45:00Z,26.0257,-81.7332,1.51,22.4,1111122 
NERRS,ioos:station:NOAA.NERRS:rkblhwq:1,2017-08-17T16:45:00Z,26.0257,-81.7332,1.36,22.7,1111122 
NERRS,ioos:station:NOAA.NERRS:rkblhwq:1,2017-08-17T17:45:00Z,26.0257,-81.7332,1.2,23.9,1111122 
NERRS,ioos:station:NOAA.NERRS:rkblhwq:1,2017-08-17T18:45:00Z,26.0257,-81.7332,1.04,22.7,1111122 
NERRS,ioos:station:NOAA.NERRS:rkblhwq:1,2017-08-17T19:45:00Z,26.0257,-81.7332,0.88,21.3,1111122 
NERRS,ioos:station:NOAA.NERRS:rkblhwq:1,2017-08-17T20:45:00Z,26.0257,-81.7332,0.75,20.3,1111122 
NERRS,ioos:station:NOAA.NERRS:rkblhwq:1,2017-08-17T21:45:00Z,26.0257,-81.7332,0.69,18.0,1111122 
NERRS,ioos:station:NOAA.NERRS:rkblhwq:1,2017-08-17T23:45:00Z,26.0257,-81.7332,0.9,19.4,1111122 
NERRS,ioos:station:NOAA.NERRS:rkblhwq:1,2017-08-18T00:45:00Z,26.0257,-81.7332,1.04,20.6,1111122 
NERRS,ioos:station:NOAA.NERRS:rkblhwq:1,2017-08-18T01:45:00Z,26.0257,-81.7332,1.19,21.4,1111122 
NERRS,ioos:station:NOAA.NERRS:rkblhwq:1,2017-08-18T02:45:00Z,26.0257,-81.7332,1.32,22.3,1111122 
NERRS,ioos:station:NOAA.NERRS:rkblhwq:1,2017-08-18T03:45:00Z,26.0257,-81.7332,1.42,23.1,1111122 
NERRS,ioos:station:NOAA.NERRS:rkblhwq:1,2017-08-18T04:45:00Z,26.0257,-81.7332,1.44,23.2,1111122 
NERRS,ioos:station:NOAA.NERRS:rkblhwq:1,2017-08-18T05:45:00Z,26.0257,-81.7332,1.35,22.5,1111122 
NERRS,ioos:station:NOAA.NERRS:rkblhwq:1,2017-08-18T06:45:00Z,26.0257,-81.7332,1.24,22.2,1111122 
NERRS,ioos:station:NOAA.NERRS:rkblhwq:1,2017-08-18T07:45:00Z,26.0257,-81.7332,1.13,22.3,1111122 
NERRS,ioos:station:NOAA.NERRS:rkblhwq:1,2017-08-18T08:45:00Z,26.0257,-81.7332,1.08,20.9,1111122 
NERRS,ioos:station:NOAA.NERRS:rkblhwq:1,2017-08-18T09:45:00Z,26.0257,-81.7332,1.1,21.1,1111122 
NERRS,ioos:station:NOAA.NERRS:rkblhwq:1,2017-08-18T10:45:00Z,26.0257,-81.7332,1.2,22.9,1111122 
NERRS,ioos:station:NOAA.NERRS:rkblhwq:1,2017-08-18T11:45:00Z,26.0257,-81.7332,1.32,21.7,1111122 
NERRS,ioos:station:NOAA.NERRS:rkblhwq:1,2017-08-18T12:45:00Z,26.0257,-81.7332,1.43,23.0,1111122 
NERRS,ioos:station:NOAA.NERRS:rkblhwq:1,2017-08-18T13:45:00Z,26.0257,-81.7332,1.55,24.1,1111122 
NERRS,ioos:station:NOAA.NERRS:rkblhwq:1,2017-08-18T14:45:00Z,26.0257,-81.7332,1.64,25.3,1111122 
NERRS,ioos:station:NOAA.NERRS:rkblhwq:1,2017-08-18T15:45:00Z,26.0257,-81.7332,1.66,25.3,1111122 
NERRS,ioos:station:NOAA.NERRS:rkblhwq:1,2017-08-18T16:45:00Z,26.0257,-81.7332,1.57,24.4,1111122 
NERRS,ioos:station:NOAA.NERRS:rkblhwq:1,2017-08-18T17:45:00Z,26.0257,-81.7332,1.42,23.3,1111122 
NERRS,ioos:station:NOAA.NERRS:rkblhwq:1,2017-08-18T18:45:00Z,26.0257,-81.7332,1.24,24.4,1111122 
NERRS,ioos:station:NOAA.NERRS:rkblhwq:1,2017-08-18T19:45:00Z,26.0257,-81.7332,1.06,23.3,1111122 
NERRS,ioos:station:NOAA.NERRS:rkblhwq:1,2017-08-19T02:45:00Z,26.0257,-81.7332,1.17,21.9,1111122 
NERRS,ioos:station:NOAA.NERRS:rkblhwq:1,2017-08-19T03:45:00Z,26.0257,-81.7332,1.3,22.6,1111122 
NERRS,ioos:station:NOAA.NERRS:rkblhwq:1,2017-08-19T04:45:00Z,26.0257,-81.7332,1.38,23.6,1111122 
NERRS,ioos:station:NOAA.NERRS:rkblhwq:1,2017-08-19T05:45:00Z,26.0257,-81.7332,1.39,23.5,1111122 
NERRS,ioos:station:NOAA.NERRS:rkblhwq:1,2017-08-19T06:45:00Z,26.0257,-81.7332,1.38,23.8,1111122 
NERRS,ioos:station:NOAA.NERRS:rkblhwq:1,2017-08-19T07:45:00Z,26.0257,-81.7332,1.26,21.6,1111122 
NERRS,ioos:station:NOAA.NERRS:rkblhwq:1,2017-08-19T08:45:00Z,26.0257,-81.7332,1.11,23.2,1111122 
NERRS,ioos:station:NOAA.NERRS:rkblhwq:1,2017-08-19T09:45:00Z,26.0257,-81.7332,1.03,21.1,1111122 
NERRS,ioos:station:NOAA.NERRS:rkblhwq:1,2017-08-19T10:45:00Z,26.0257,-81.7332,1.04,21.8,1111122 
NERRS,ioos:station:NOAA.NERRS:rkblhwq:1,2017-08-19T11:45:00Z,26.0257,-81.7332,1.17,22.5,1111122 
NERRS,ioos:station:NOAA.NERRS:rkblhwq:1,2017-08-19T12:45:00Z,26.0257,-81.7332,1.32,21.8,1111122 
NERRS,ioos:station:NOAA.NERRS:rkblhwq:1,2017-08-19T13:45:00Z,26.0257,-81.7332,1.45,23.3,1111122 
NERRS,ioos:station:NOAA.NERRS:rkblhwq:1,2017-08-19T14:45:00Z,26.0257,-81.7332,1.58,24.5,1111122 
NERRS,ioos:station:NOAA.NERRS:rkblhwq:1,2017-08-19T15:45:00Z,26.0257,-81.7332,1.67,25.8,1111122 
NERRS,ioos:station:NOAA.NERRS:rkblhwq:1,2017-08-19T16:45:00Z,26.0257,-81.7332,1.68,26.4,1111122 
NERRS,ioos:station:NOAA.NERRS:rkblhwq:1,2017-08-19T17:45:00Z,26.0257,-81.7332,1.57,25.3,1111122 
NERRS,ioos:station:NOAA.NERRS:rkblhwq:1,2017-08-19T18:45:00Z,26.0257,-81.7332,1.41,24.1,1111122 